Погода в Калбатау

Казахстан     49°19′42″N   81°34′14″E
темп.,
°C
ветер,
м/с
пор.,
м/с
влажн.,
%
обл.,
%
осадки,
мм/ч
давл.,
гПа
погр.,
м
2 марта, вт
вт200:00−4ю61295100 5.0 1021530
03:00−3ю61195100 3.6 1020513
06:00−3ю4897100 6.8 1021399
09:00−4ююв6995100 3.2 1021353
12:00−2ю6996100 4.6 1020462
15:00−1ю6998100 1.8 1018484
18:00−2ююв61295100 4.0 1016456
21:00−1ю71394100 2.7 1016595
3 марта, ср
ср300:00−1юз81587100 3.7 1017523
03:00−3юз5995100 0.4 1019311
06:00−6зюз3497100 0.9 102284
09:00−8зюз3691100 0.4 1024189
12:00−8з358499 0.4 1025525
15:00−6з257999 0.0 1026646
18:00−11ююз118758 0.0 102721
21:00−13ююз448222 0.0 103044
4 марта, чт
чт400:00−15ю338011 0.0 103122
03:00−15юв33790 0.0 103124
06:00−14ююв59770 0.0 1032128
09:00−12ююв512760 0.0 1031284
12:00−7ююв611740 0.0 1030396
15:00−6ююв510760 0.0 1028389
18:00−10ююв488014 0.0 1028127
21:00−12ююв598156 0.0 1028150
5 марта, пт
пт500:00−11ююв5148353 0.0 1026281
03:00−8юв82075100 0.0 1022456
06:00−7ююв82074100 0.0 1020492
09:00−5юв122281100 0.9 1018542
12:00−4ююв71294100 2.9 1021470
15:00−1зсз71092100 0.9 1028895
18:00−3з2387100 1.1 103376
21:00−7ю448269 0.0 103544
6 марта, сб
сб600:00−10ююв588441 0.0 1035105
03:00−9ююв511839 0.0 1033182
06:00−10ююв5107821 0.0 1033177
09:00−8ююв512870 0.0 1032311
12:00−3ююв611830 0.0 1029501
15:00−3ююв7138123 0.0 1027504
18:00−7ююв478433 0.0 1026134
21:00−10ююв23898 0.0 102732